TimeEDT,TemperatureF,Dew PointF,Humidity,Sea Level PressureIn,VisibilityMPH,Wind Direction,Wind SpeedMPH,Gust SpeedMPH,PrecipitationIn,Events,Conditions,WindDirDegrees,DateUTC
12:53 AM,53.1,39.9,61,30.17,10.0,SW,3.5,-,N/A,,Clear,230,2013-03-16 04:53:00
1:53 AM,55.9,39.0,53,30.15,10.0,West,4.6,-,N/A,,Clear,260,2013-03-16 05:53:00
2:53 AM,55.0,41.0,59,30.13,10.0,WSW,5.8,-,N/A,,Clear,250,2013-03-16 06:53:00
3:53 AM,54.0,42.1,64,30.13,10.0,WSW,4.6,-,N/A,,Clear,250,2013-03-16 07:53:00
4:53 AM,55.9,42.1,60,30.12,10.0,West,8.1,-,N/A,,Clear,280,2013-03-16 08:53:00
5:53 AM,55.9,43.0,62,30.12,10.0,West,6.9,-,N/A,,Clear,260,2013-03-16 09:53:00
6:53 AM,54.0,44.1,69,30.12,10.0,West,5.8,-,N/A,,Clear,280,2013-03-16 10:53:00
7:53 AM,54.0,45.0,72,30.14,10.0,West,4.6,-,N/A,,Clear,270,2013-03-16 11:53:00
8:53 AM,59.0,46.0,62,30.15,10.0,West,6.9,-,N/A,,Clear,260,2013-03-16 12:53:00
9:53 AM,62.1,46.0,56,30.16,10.0,West,8.1,17.3,N/A,,Clear,260,2013-03-16 13:53:00
10:53 AM,66.9,46.0,47,30.15,10.0,WSW,15.0,19.6,N/A,,Clear,250,2013-03-16 14:53:00
11:53 AM,71.1,46.0,41,30.14,10.0,West,9.2,18.4,N/A,,Clear,280,2013-03-16 15:53:00
12:53 PM,73.0,45.0,37,30.12,10.0,WSW,11.5,-,N/A,,Clear,250,2013-03-16 16:53:00
1:53 PM,77.0,45.0,32,30.09,10.0,West,10.4,19.6,N/A,,Clear,270,2013-03-16 17:53:00
2:53 PM,78.1,44.1,30,30.06,10.0,West,10.4,19.6,N/A,,Clear,280,2013-03-16 18:53:00
3:53 PM,80.1,42.1,26,30.03,10.0,West,10.4,23.0,N/A,,Clear,280,2013-03-16 19:53:00
4:53 PM,80.1,39.9,24,30.01,10.0,West,12.7,20.7,N/A,,Clear,260,2013-03-16 20:53:00
5:53 PM,80.1,41.0,25,30.00,10.0,West,13.8,19.6,N/A,,Clear,260,2013-03-16 21:53:00
6:53 PM,78.1,39.9,25,30.01,10.0,WSW,13.8,-,N/A,,Clear,240,2013-03-16 22:53:00
7:53 PM,75.0,42.1,31,30.03,10.0,West,6.9,-,N/A,,Clear,260,2013-03-16 23:53:00
8:53 PM,72.0,44.1,37,30.05,10.0,WSW,9.2,17.3,N/A,,Clear,250,2013-03-17 00:53:00
9:53 PM,66.9,44.1,44,30.06,10.0,SW,8.1,-,N/A,,Clear,230,2013-03-17 01:53:00
10:53 PM,66.9,41.0,39,30.09,10.0,WSW,6.9,-,N/A,,Clear,250,2013-03-17 02:53:00
11:53 PM,64.9,41.0,42,30.09,10.0,WSW,8.1,-,N/A,,Clear,240,2013-03-17 03:53:00